This is the latest recevied weather packets stored in our database for station/object SV1RVP-13. If no packets are shown the sender has not sent any weather packets the latest 10 day(s).
| Time | Temp. | Humidity | Pressure | Rain* | Wind** | Luminosity | Snow |
|---|---|---|---|---|---|---|---|
| 1777775908 | 10° C | 71% | 1015.5 hPa | 0.51 mm | - | - | - |
| 1777775308 | 10.56° C | 70% | 1015.5 hPa | 0.51 mm | - | - | - |
| 1777774732 | 10.56° C | 68% | 1015.5 hPa | 0.51 mm | - | - | - |
| 1777774121 | 10.56° C | 68% | 1015.6 hPa | 0.51 mm | - | - | - |
| 1777773511 | 10.56° C | 69% | 1015.6 hPa | 0.51 mm | - | - | - |
| 1777772933 | 10.56° C | 68% | 1015.5 hPa | 0.51 mm | - | - | - |
| 1777772314 | 10.56° C | 69% | 1015.4 hPa | 0.51 mm | - | - | - |
| 1777771713 | 10.56° C | 69% | 1015.3 hPa | 0.51 mm | - | - | - |
| 1777771135 | 10.56° C | 70% | 1015.2 hPa | 0.51 mm | - | - | - |
| 1777770524 | 10° C | 70% | 1015.5 hPa | 0.51 mm | - | - | - |
| 1777769914 | 10° C | 71% | 1015.5 hPa | 0.51 mm | - | - | - |
| 1777769318 | 10° C | 71% | 1015.4 hPa | 0.51 mm | - | - | - |
| 1777768710 | 10° C | 72% | 1015.3 hPa | 0.51 mm | - | - | - |
| 1777768114 | 9.44° C | 74% | 1015.5 hPa | 0.51 mm | - | - | - |
| 1777767536 | 9.44° C | 75% | 1015.4 hPa | 0.51 mm | - | - | - |
| 1777766925 | 8.89° C | 77% | 1015.6 hPa | 0.51 mm | - | - | - |
| 1777766320 | 9.44° C | 76% | 1015.6 hPa | 0.51 mm | - | - | - |
| 1777765725 | 9.44° C | 75% | 1015.9 hPa | 0.51 mm | - | - | - |
| 1777765117 | 9.44° C | 74% | 1016.1 hPa | 0.51 mm | - | - | - |
| 1777764522 | 10° C | 74% | 1016.3 hPa | 0.51 mm | - | - | - |
| 1777763913 | 10° C | 75% | 1016.3 hPa | 0.51 mm | - | - | - |
| 1777763316 | 10° C | 76% | 1016.3 hPa | 0.51 mm | - | - | - |
| 1777762711 | 10° C | 74% | 1016.4 hPa | 0.51 mm | - | - | - |
| 1777762126 | 10.56° C | 69% | 1016.4 hPa | 0.51 mm | - | - | - |
| 1777761513 | 11.11° C | 67% | 1016.8 hPa | 0 mm | - | - | - |
* Rain since midnight (hover to see other rain measurements)
** Current wind speed in m/s (hover to see current wind gust speed)